Location: Le Rocchette
(44.3500°N, 7.8333°E)
Time: 05:17:08
(UTC+00:00)

SJ 16-02 - Pass Details

Date: 17 November 2019
Orbit: 606 x 616 km, 75.0° (Epoch: 10 December)

Event Time Altitude Azimuth Distance (km) Brightness Sun altitude
Exits shadow 03:37:50 38° 85° (E) 935 2.7 -30.0°
Drops below altitude 10° 03:41:25 10° 34° (NE) 1,966 4.3 -29.4°
Sets 03:43:46 0° 27° (NNE) 2,874 5.1 -29.0°
